CAPE
1109 1326 1264 220 6 2 0 0 2 0 7 235 347 523 423 351 157 1 36 144 372 539 766 655 1296 1273 1236 1197 1239 1554 1925 1919 2140 1950 2342 2547 2641 1633 1892 2166 1882 1443 1704 1757 1630 1525 1649 1103 785
1665 860 70 50 5 3 23 42 75 29 92 126 237 295 418 497 134 136 73 399 497 617 635 776 1685 1612 1309 1703 1587 1521 1490 1675 1931 2236 2541 2855 2567 2120 1969 1517 1410 1384 1327 1362 1672 1592 1125 1108 1266
1068 1189 14 57 76 2 26 125 115 76 75 81 249 370 428 380 57 104 241 604 750 599 689 950 1388 1058 1510 1773 2316 1526 1297 1688 1915 2552 2652 2744 2338 1849 1896 1668 1442 1295 1222 1134 1227 1418 1545 1331 1101
1168 90 63 61 66 76 52 73 153 73 87 202 391 490 429 545 286 191 376 677 735 676 603 1206 1452 1199 1437 1817 1958 2402 1974 2006 2208 2607 2615 2235 2280 1823 1554 1620 1740 1656 1385 1154 651 1077 1358 1449 1291
54 0 9 24 121 97 116 45 143 121 349 446 448 501 454 447 483 195 331 439 758 850 682 840 1861 1430 1696 2408 2632 2465 2578 2774 2569 2543 2473 2371 2182 2129 1939 1798 1877 1634 1795 1434 889 863 1230 1036 1082
45 69 14 37 100 290 84 79 234 118 371 513 569 436 448 422 291 106 122 396 974 1227 916 1116 2167 2319 2302 2279 1977 2111 2150 2427 2527 2446 2378 2611 2093 2001 1933 1717 1618 1765 1605 1665 1376 843 1244 1357 1232
321 302 242 154 204 174 102 74 223 242 380 518 514 406 489 417 201 12 75 539 1264 1579 1656 1510 1439 1884 2216 2491 2547 2867 3031 2993 2681 2852 2904 2507 1961 1957 2212 1850 1720 1554 1677 1804 1573 1345 799 1177 1066
436 447 390 433 171 83 144 77 227 227 294 459 410 425 464 382 189 175 436 778 1253 1621 1930 2131 1927 1741 1864 2010 3043 3081 3231 3151 3053 2653 1899 1843 1725 1673 1634 2083 2164 1495 1439 1608 1468 1254 1192 897 920
431 391 389 434 100 2 93 84 179 194 406 430 458 418 457 420 549 847 755 816 1100 1382 1769 1936 2022 2008 1812 1832 2264 3101 2786 2422 2151 1930 2029 2384 1557 1604 1668 1958 1769 1755 1620 1618 1527 1357 1241 1303 1157
310 279 258 303 31 14 78 58 66 291 370 445 420 509 546 703 1031 965 801 775 862 1342 1793 1782 1801 2070 1953 2040 1979 2390 2085 1965 1885 1482 1611 1790 1514 1572 1625 1636 1888 1741 1628 1491 1744 1566 1274 1061 862
190 11 0 0 0 0 12 1 115 261 342 488 364 460 696 960 1017 989 924 790 835 1202 1550 1706 1823 1886 1971 1942 1940 2129 1942 1942 1899 1763 1512 1672 1480 1782 1674 1726 1625 1637 1794 1377 1677 1526 1244 594 800
0 0 0 0 0 0 0 17 269 270 466 551 361 375 717 768 864 920 878 771 861 1023 1248 1584 1747 1763 1953 1758 2177 1864 1932 2002 2049 1972 1767 1822 1355 1100 1104 1251 1416 1449 1529 1442 1335 1303 1121 633 312
0 0 0 0 0 0 0 558 412 388 712 487 332 500 514 556 642 751 640 696 833 840 969 1302 1442 1491 1754 1576 1741 1677 1831 1884 1806 1723 1690 1550 1195 932 1099 1102 1239 1361 1062 1302 1013 1171 687 599 396
0 0 0 0 0 0 0 0 154 522 689 272 261 367 359 398 466 558 439 646 568 578 786 926 1060 1158 1355 1454 1590 1321 1429 1652 1584 1519 1522 1319 1194 992 1035 995 1081 1302 995 942 974 825 716 577 495
0 0 0 0 0 0 0 0 104 541 627 220 215 323 398 334 315 376 399 646 417 295 519 740 935 1125 1196 1437 1238 1049 1116 1314 1510 1351 1391 1452 1284 1023 997 884 1113 1154 1004 944 963 789 747 698 705
0 0 0 0 0 0 0 0 308 582 523 305 231 202 273 527 411 416 514 711 515 423 618 856 868 1045 1172 1405 1419 1009 1033 1106 1070 1096 1259 1498 1509 1502 1267 1020 1010 841 1049 1174 1058 967 849 473 464
0 0 0 0 0 0 0 0 362 540 566 379 266 224 290 715 630 647 685 769 677 631 701 925 888 1017 981 1170 1487 1391 989 964 1039 1097 1148 1365 1506 1624 1599 1119 1101 1092 942 843 671 630 579 451 550
0 0 0 0 0 0 0 0 318 442 593 416 349 298 499 725 895 712 732 809 873 876 974 1036 1182 1133 1147 1167 1511 1613 1560 1344 1313 1411 1342 1344 1293 1422 1585 1519 1234 1113 1001 570 501 585 509 427 528
0 0 0 0 0 0 0 0 0 288 547 436 474 610 714 895 1055 901 801 830 917 921 1125 1356 1432 1388 1358 1343 1499 1650 1746 1721 1560 1421 1569 1674 1644 1398 1352 1255 1283 1019 883 837 692 610 583 467 425
0 0 0 0 0 0 0 0 0 30 335 386 441 698 821 1112 1140 1120 903 966 924 1310 1314 1374 1415 1478 1532 1307 1296 1705 1844 1864 1634 1235 1318 1631 1719 1702 1710 1235 922 883 933 1023 775 900 882 568 505
0 0 0 0 0 0 0 0 109 353 794 552 528 647 822 1094 1065 1185 1070 1047 951 1226 1536 1618 1526 1553 1642 1587 1420 1529 1772 1505 1275 1198 1312 1399 1611 1719 1695 1505 1304 1285 1079 1024 995 1097 1250 900 902
0 0 0 0 0 0 0 0 97 680 1137 1292 1022 925 1053 1153 1266 1260 1279 1181 1375 1173 1330 1697 1801 1717 1741 1790 1735 1544 1549 1477 1487 1402 1188 1149 1347 1547 1614 1658 1524 1352 1241 1086 1043 958 1077 816 872
0 0 0 0 0 0 0 0 0 775 1252 1514 1578 1536 1559 1565 1619 1729 1801 1764 1708 1508 1458 1840 1912 1890 1852 1905 2046 1988 1677 1647 1630 1730 1728 1737 1707 1602 1685 1632 1620 1571 1525 1314 1182 1157 1033 806 826
0 0 0 0 0 0 0 0 0 749 1158 1670 1823 1943 2040 2064 2093 2153 2138 2079 1964 1795 1889 2059 2150 1938 1909 2074 1956 2108 1981 2019 2025 2219 2283 2100 2033 2007 1984 1994 1913 1581 1497 1413 1347 1261 1033 812 852
0 0 0 0 0 0 0 0 0 159 885 1688 2008 2023 1912 1984 2154 2232 2205 2189 2165 2312 2492 2234 2288 2316 2149 2168 2073 2091 2240 2340 2560 2557 2595 2519 2586 2469 2304 2231 2156 2053 1644 1494 1300 1167 1021 972 945
0 0 0 0 0 0 0 0 0 0 280 1536 1961 1989 1998 1938 2144 2254 2297 2315 2308 2280 2417 2553 2363 2335 2529 2681 2680 2697 2719 2711 2819 2870 2773 2614 2514 2431 2304 2173 2165 2277 2182 2033 1473 1182 1076 998 934
0 0 0 0 0 0 0 0 10 0 42 737 1132 1303 1681 1794 1832 1595 2185 2365 2328 2374 2385 2410 2467 2398 2308 2514 2664 2825 3020 3070 2754 2399 2385 2454 2368 2274 2130 2010 2042 1973 2060 1983 1982 1754 1179 957 1097
0 0 0 0 0 0 0 0 1 54 131 325 452 675 1083 1071 871 911 975 1001 938 958 982 928 956 1089 981 990 1126 1192 1189 1321 1612 1898 2011 1811 1863 2043 2218 2293 2207 2021 1906 1913 1804 1613 1480 1228 1072
0 0 0 0 0 0 0 0 0 87 229 313 380 529 744 702 865 1005 1012 1051 1053 974 746 762 662 591 655 825 1041 1215 1284 1253 1204 1143 1163 1188 1250 1360 1482 1648 1828 1892 1926 1859 1609 1501 1504 1465 1319
0 0 0 0 0 0 0 0 0 0 27 35 139 452 637 802 960 1035 995 863 805 680 381 215 296 346 611 520 523 644 665 670 560 496 394 409 491 643 987 1344 1500 1481 1760 1835 1746 1482 1642 1601 1627
CIN
-218 -291 -277 -434 -19 -34 -9 -0 -17 -4 -71 -145 -115 -112 -118 -95 -89 -14 -145 -82 -22 -2 -1 -9 -0 -0 -0 -0 -0 -0 -0 -0 -0 -0 -0 -0 -0 -0 -0 -0 -0 -0 -0 -0 -0 -0 -0 -0 -0
-198 -326 -512 -330 -71 -24 -111 -118 -145 -139 -162 -191 -156 -126 -104 -68 -175 -165 -147 -8 -14 -4 -1 -1 -0 -0 -0 -0 -0 -0 -0 -0 -0 -0 -0 -0 -0 -0 -2 -0 -0 -0 -0 -0 -0 -0 -0 -0 -0
-328 -315 -236 -167 -173 -13 -144 -223 -143 -167 -168 -134 -181 -162 -117 -99 -188 -185 -106 -2 -2 -7 -1 -0 -0 -0 -0 -0 -0 -0 -0 -0 -0 -0 -0 -0 -0 -0 -0 -0 -0 -0 -0 -0 -0 -0 -0 -0 -0
-272 -397 -52 -97 -128 -204 -119 -109 -174 -172 -132 -191 -198 -185 -131 -88 -129 -167 -79 -9 -9 -9 -14 -2 -0 -0 -0 -0 -0 -0 -0 -0 -0 -0 -0 -0 -0 -0 -0 -0 -0 -0 -0 -0 -0 -0 -0 -0 -0
-637 -0 -41 -82 -200 -227 -170 -188 -180 -190 -212 -187 -192 -195 -178 -106 -57 -178 -113 -35 -23 -5 -19 -14 -0 -0 -0 -0 -0 -0 -0 -0 -0 -0 -0 -0 -0 -0 -0 -0 -0 -0 -0 -0 -0 -0 -0 -1 -7
-320 -315 -157 -126 -53 -158 -159 -100 -211 -173 -228 -252 -260 -253 -171 -128 -109 -248 -176 -60 -21 -4 -19 -22 -0 -0 -0 -0 -0 -0 -0 -0 -0 -0 -0 -0 -0 -0 -0 -0 -0 -0 -0 -0 -0 -2 -0 -0 -4
-84 -84 -129 -235 -171 -161 -62 -46 -183 -223 -249 -241 -273 -281 -207 -176 -221 -384 -233 -60 -11 -2 -14 -25 -11 -0 -0 -0 -0 -0 -0 -0 -0 -0 -0 -0 -0 -0 -0 -0 -0 -0 -0 -0 -3 -1 -15 -4 -10
-107 -96 -118 -78 -83 -42 -40 -187 -187 -196 -194 -289 -311 -302 -269 -261 -274 -246 -111 -50 -21 -0 -0 -0 -2 -0 -1 -1 -0 -0 -0 -0 -0 -0 -1 -5 -0 -0 -0 -0 -0 -0 -2 -0 -11 -14 -10 -20 -25
-147 -159 -166 -165 -68 -3 -44 -94 -114 -65 -254 -215 -146 -316 -312 -303 -223 -108 -69 -35 -21 -6 -1 -1 -0 -1 -1 -6 -0 -0 -0 -0 -0 -3 -6 -0 -2 -2 -0 -3 -0 -0 -0 -0 -0 -11 -14 -12 -21
-165 -201 -200 -155 -43 -26 -62 -57 -34 -240 -278 -130 -355 -334 -337 -272 -153 -131 -120 -86 -56 -21 -1 -2 -10 -1 -1 -0 -1 -1 -1 -1 -0 -1 -7 -3 -10 -4 -2 -4 -0 -0 -0 -4 -0 -0 -9 -24 -43
-165 -219 -5 -0 -0 -0 -33 -10 -31 -246 -141 -126 -419 -420 -376 -278 -206 -190 -164 -184 -157 -77 -23 -14 -12 -18 -4 -0 -3 -2 -2 -2 -1 -5 -13 -9 -8 -2 -1 -2 -0 -0 -0 -13 -3 -11 -15 -71 -61
-0 -0 -0 -0 -0 -0 -0 -18 -118 -53 -98 -126 -368 -387 -472 -380 -309 -251 -227 -209 -136 -107 -80 -48 -35 -42 -16 -34 -7 -20 -8 -4 -1 -0 -1 -5 -26 -46 -47 -19 -6 -8 -10 -21 -23 -28 -33 -80 -121
-0 -0 -0 -0 -0 -0 -0 -75 -105 -131 -86 -118 -336 -460 -449 -420 -358 -277 -284 -270 -211 -163 -131 -90 -80 -81 -48 -55 -43 -46 -43 -47 -55 -31 -21 -21 -42 -76 -44 -52 -49 -25 -44 -42 -53 -32 -70 -87 -114
-0 -0 -0 -0 -0 -0 -0 -0 -121 -123 -63 -228 -378 -450 -419 -396 -369 -305 -347 -149 -301 -259 -183 -163 -147 -129 -103 -90 -70 -96 -83 -59 -57 -33 -18 -34 -40 -62 -62 -62 -115 -64 -84 -73 -70 -61 -54 -75 -83
-0 -0 -0 -0 -0 -0 -0 -0 -104 -109 -91 -298 -323 -395 -372 -370 -338 -301 -355 -164 -152 -365 -283 -213 -176 -155 -133 -105 -106 -119 -113 -62 -40 -44 -36 -35 -47 -46 -40 -131 -90 -78 -95 -89 -69 -79 -62 -58 -51
-0 -0 -0 -0 -0 -0 -0 -0 -190 -97 -71 -118 -288 -287 -291 -248 -356 -196 -145 -141 -131 -123 -88 -29 -202 -174 -139 -116 -94 -124 -113 -88 -89 -79 -70 -43 -46 -30 -38 -110 -78 -77 -67 -42 -48 -40 -42 -73 -77
-0 -0 -0 -0 -0 -0 -0 -0 -163 -101 -95 -123 -203 -277 -35 -25 -37 -42 -177 -206 -290 -235 -285 -56 -253 -227 -193 -108 -116 -98 -99 -148 -132 -105 -90 -83 -57 -47 -31 -71 -82 -40 -44 -43 -62 -62 -58 -92 -67
-0 -0 -0 -0 -0 -0 -0 -0 -173 -138 -101 -126 -63 -49 -29 -29 -35 -54 -53 -182 -230 -195 -243 -266 -252 -241 -231 -25 -133 -96 -77 -78 -34 -54 -128 -133 -102 -83 -58 -43 -63 -50 -45 -82 -105 -70 -53 -60 -47
-0 -0 -0 -0 -0 -0 -0 -0 -0 -219 -114 -132 -86 -78 -54 -33 -46 -52 -55 -40 -210 -156 -246 -233 -236 -228 -207 -213 -171 -126 -100 -84 -73 -82 -91 -74 -88 -73 -23 -96 -64 -72 -90 -62 -80 -61 -39 -59 -50
-0 -0 -0 -0 -0 -0 -0 -0 -0 -216 -159 -147 -114 -94 -63 -40 -37 -46 -47 -34 -85 -287 -263 -235 -232 -213 -208 -200 -205 -135 -96 -65 -66 -93 -83 -100 -84 -67 -39 -31 -65 -79 -84 -55 -88 -54 -36 -41 -24
-0 -0 -0 -0 -0 -0 -0 -0 -83 -167 -222 -237 -109 -101 -85 -51 -37 -34 -37 -29 -38 -293 -250 -243 -208 -183 -205 -167 -161 -124 -70 -69 -66 -114 -117 -97 -90 -60 -45 -34 -17 -8 -2 -68 -74 -58 -29 -30 -20
-0 -0 -0 -0 -0 -0 -0 -0 -117 -123 -142 -218 -288 -210 -60 -46 -34 -42 -38 -32 -25 -30 -288 -197 -165 -151 -180 -139 -100 -105 -67 -48 -23 -26 -75 -90 -166 -94 -76 -67 -48 -20 -6 -3 -9 -42 -26 -29 -25
-0 -0 -0 -0 -0 -0 -0 -0 -0 -104 -103 -137 -185 -198 -187 -196 -22 -30 -32 -29 -29 -45 -284 -217 -137 -106 -67 -90 -52 -26 -66 -63 -60 -38 -11 -49 -41 -33 -89 -66 -64 -45 -31 -16 -9 -32 -27 -47 -26
-0 -0 -0 -0 -0 -0 -0 -0 -0 -106 -132 -114 -103 -90 -80 -44 -30 -38 -46 -48 -40 -29 -208 -224 -178 -153 -47 -24 -45 -81 -68 -19 -18 -4 -5 -10 -24 -18 -19 -14 -10 -12 -57 -40 -27 -17 -9 -27 -50
-0 -0 -0 -0 -0 -0 -0 -0 -0 -139 -134 -92 -100 -58 -45 -77 -77 -58 -55 -42 -121 -157 -160 -196 -176 -153 -107 -41 -55 -49 -30 -31 -4 -5 -3 -7 -9 -15 -16 -8 -8 -8 -15 -53 -42 -44 -43 -25 -91
-0 -0 -0 -0 -0 -0 -0 -0 -0 -0 -175 -69 -64 -74 -64 -67 -93 -67 -66 -78 -92 -106 -114 -131 -122 -123 -116 -103 -93 -62 -45 -20 -7 -9 -15 -17 -19 -21 -31 -30 -20 -9 -7 -4 -14 -67 -36 -68 -38
-0 -0 -0 -0 -0 -0 -0 -0 -158 -0 -250 -86 -80 -100 -96 -73 -46 -59 -47 -42 -45 -55 -59 -76 -66 -58 -49 -53 -65 -63 -48 -45 -51 -71 -65 -39 -43 -34 -32 -43 -24 -20 -8 -11 -9 -5 -30 -112 -70
-0 -0 -0 -0 -0 -0 -0 -0 -81 -156 -125 -112 -116 -137 -109 -110 -153 -117 -76 -62 -59 -36 -14 -17 -57 -39 -23 -32 -38 -54 -52 -69 -85 -66 -40 -38 -60 -74 -55 -33 -26 -23 -19 -10 -8 -18 -35 -30 -46
-0 -0 -0 -0 -0 -0 -0 -0 -0 -56 -53 -63 -64 -98 -97 -100 -86 -75 -78 -68 -52 -34 -41 -20 -14 -51 -71 -66 -64 -48 -36 -30 -42 -58 -97 -87 -84 -69 -74 -68 -45 -34 -18 -12 -8 -5 -7 -2 -31
-0 -0 -0 -0 -0 -0 -0 -0 -0 -0 -62 -58 -63 -66 -57 -42 -47 -62 -54 -60 -51 -51 -55 -29 -140 -151 -138 -129 -125 -110 -84 -59 -60 -87 -125 -168 -147 -134 -100 -68 -63 -50 -33 -17 -7 -7 -1 -0 -0
Wind_Speed
22 20 22 23 nan nan nan nan nan nan nan 33 31 32 25 8 8 nan nan 12 15 12 10 12 18 13 15 17 18 11 12 14 13 12 9 13 10 8 11 12 12 8 7 6 5 4 3 2 5
3 15 nan nan nan nan nan nan nan nan nan 32 28 30 18 16 4 7 nan 15 17 13 7 7 12 14 16 21 18 19 16 12 10 8 6 11 10 8 10 11 11 8 8 6 5 6 4 2 5
23 10 nan nan nan nan nan 30 25 nan nan nan 26 22 18 13 nan 10 15 16 15 11 7 7 13 13 15 21 24 17 16 13 10 9 8 11 11 10 10 12 9 9 9 7 7 7 5 3 4
17 nan nan nan nan nan nan nan 28 nan nan 17 21 22 19 16 22 15 18 16 13 9 10 14 14 12 13 19 26 21 21 20 16 12 11 12 11 10 11 10 8 8 8 9 8 6 5 3 2
nan nan nan nan 26 nan 29 nan 24 23 23 20 20 23 21 19 17 23 20 16 14 13 12 10 13 11 10 12 23 25 24 17 15 10 11 10 10 10 11 10 9 8 8 9 9 8 6 4 2
nan nan nan nan 26 26 nan nan 21 20 21 23 15 18 21 27 24 25 22 17 15 14 12 10 12 9 4 3 10 24 16 20 14 14 15 11 8 7 9 9 7 7 8 9 9 7 6 5 1
8 11 17 22 23 19 23 nan 24 22 24 23 21 14 20 29 32 nan nan 21 17 14 12 7 4 3 4 8 5 7 14 18 16 19 14 4 5 7 8 6 6 7 8 8 9 8 6 5 4
4 5 16 16 17 nan 21 nan 24 25 23 18 29 23 22 30 32 28 23 22 21 19 15 17 3 5 4 8 4 8 9 20 22 19 10 5 6 7 6 6 8 6 6 8 8 8 7 5 5
1 7 20 21 17 nan nan nan 23 25 22 22 25 22 23 26 26 23 23 23 22 22 18 16 5 6 9 6 7 8 9 9 13 15 11 15 20 12 8 7 5 5 6 7 8 8 8 8 6
4 12 23 23 nan nan nan nan nan 22 24 17 15 23 27 26 25 26 28 28 30 27 22 18 15 7 7 9 9 6 1 10 16 18 17 16 16 13 10 6 3 5 6 7 7 8 9 10 11
9 nan nan nan nan nan nan nan 19 26 23 21 33 32 30 31 28 27 29 32 33 32 26 22 22 18 8 6 5 6 5 5 8 9 19 14 16 16 10 11 10 9 5 11 10 12 13 11 11
nan nan nan nan nan nan nan nan 14 33 25 25 33 33 35 34 33 31 29 26 26 29 32 27 23 20 18 15 9 6 8 5 4 4 7 14 10 14 11 11 11 8 11 10 11 12 11 11 11
nan nan nan nan nan nan nan 12 17 30 24 27 29 29 32 33 32 30 29 30 27 27 30 34 30 25 20 17 18 16 11 5 12 8 9 11 16 12 15 17 10 13 12 12 11 11 10 10 11
nan nan nan nan nan nan nan nan 9 18 25 32 34 31 30 30 29 25 26 28 29 28 26 29 32 32 25 23 20 19 16 5 3 6 6 6 8 12 11 19 20 13 11 13 13 12 11 11 10
nan nan nan nan nan nan nan nan 18 21 30 39 38 33 29 26 27 26 26 26 27 26 25 26 27 26 26 27 23 18 16 15 14 12 12 11 13 10 8 11 18 24 14 13 14 13 13 12 11
nan nan nan nan nan nan nan nan 12 21 34 38 38 34 28 26 27 23 20 22 20 19 22 22 23 25 24 22 22 23 20 19 17 15 13 13 15 16 13 8 15 19 19 16 16 15 15 14 14
nan nan nan nan nan nan nan nan 18 20 31 36 38 34 28 24 24 26 22 18 21 17 17 17 19 20 23 20 17 17 18 18 20 18 17 15 15 17 16 16 10 19 22 25 22 18 16 14 14
nan nan nan nan nan nan nan nan 21 21 32 36 36 38 38 33 35 26 22 17 12 12 12 15 13 11 13 10 9 9 9 13 14 14 16 17 14 15 17 14 15 15 15 15 26 20 20 16 15
nan nan nan nan nan nan nan nan nan 16 22 27 30 35 39 37 29 19 16 18 15 12 12 13 16 13 12 8 6 4 9 8 6 9 11 11 13 13 13 11 10 13 15 13 16 24 20 21 21
nan nan nan nan nan nan nan nan nan nan 20 27 33 35 36 32 26 21 20 20 18 17 15 13 11 12 13 13 10 9 9 10 10 13 11 13 11 12 13 14 12 10 11 12 14 20 20 22 31
nan nan nan nan nan nan nan nan 9 4 4 10 21 30 33 37 34 28 25 28 23 20 16 16 12 10 11 14 16 16 17 15 16 15 12 15 16 14 15 15 14 12 12 14 15 17 21 23 24
nan nan nan nan nan nan nan nan nan 9 5 7 14 24 30 31 27 31 30 31 31 26 17 12 11 12 13 17 18 19 13 11 14 18 19 18 21 19 18 16 14 14 13 14 16 16 16 28 24
nan nan nan nan nan nan nan nan nan 22 9 12 14 21 25 25 31 33 35 37 35 25 18 19 16 11 14 17 19 20 11 19 15 18 15 16 18 21 22 23 18 15 18 18 19 19 18 19 25
nan nan nan nan nan nan nan nan nan 22 23 17 13 21 28 27 29 30 28 31 28 25 25 23 26 20 19 19 18 20 19 18 21 22 23 19 20 22 25 25 25 23 21 20 21 23 20 19 18
nan nan nan nan nan nan nan nan nan 18 17 20 22 26 30 32 31 32 32 30 25 27 27 28 28 26 25 25 23 22 22 23 24 25 27 27 29 29 23 26 30 32 26 23 27 27 26 21 21
nan nan nan nan nan nan nan nan nan nan 29 26 22 28 28 31 30 30 36 33 29 28 28 28 25 24 29 26 25 27 28 28 28 29 31 32 34 35 36 35 30 27 29 32 29 35 35 30 21
nan nan nan nan nan nan nan nan nan nan nan 33 30 30 32 32 33 34 33 29 28 26 27 26 25 20 19 24 30 30 30 33 34 34 36 36 36 35 38 40 39 33 30 33 37 41 43 35 23
nan nan nan nan nan nan nan nan nan nan 27 29 27 29 34 35 36 35 29 28 25 27 27 30 31 26 24 25 26 28 31 36 37 39 38 38 39 43 41 42 42 40 35 35 36 41 41 35 24
nan nan nan nan nan nan nan nan nan nan 26 30 31 35 39 43 41 33 30 31 29 30 33 35 35 33 33 33 33 33 33 35 36 39 40 42 43 42 42 43 42 43 41 40 38 39 42 38 34
nan nan nan nan nan nan nan nan nan nan nan nan 38 44 44 42 42 42 44 45 41 40 36 37 39 37 37 39 39 37 39 41 41 41 40 43 44 45 43 45 46 44 44 42 40 37 41 42 37
Wind_Direction
46 76 61 62 nan nan nan nan nan nan nan 48 22 357 353 2 25 nan nan 331 334 327 301 284 286 296 291 264 254 235 201 217 216 217 191 237 214 202 216 212 202 178 199 217 222 251 259 28 22
333 41 nan nan nan nan nan nan nan nan nan 34 17 7 359 3 3 311 nan 342 328 324 327 307 286 255 244 246 243 253 223 220 228 218 196 231 225 192 211 225 207 177 200 208 216 238 261 7 15
89 61 nan nan nan nan nan 63 37 nan nan nan 30 14 16 26 nan 33 355 338 324 336 344 324 302 293 259 248 260 241 232 215 216 215 199 214 218 211 205 218 192 174 188 198 216 229 252 309 2
95 nan nan nan nan nan nan nan 53 nan nan 15 27 18 30 37 37 35 2 346 340 12 29 326 309 279 269 268 253 227 232 215 211 203 215 209 209 206 198 203 176 169 186 190 217 233 245 284 325
nan nan nan nan 61 nan 68 nan 65 40 20 17 49 34 33 58 28 7 3 360 0 24 43 352 318 286 282 253 236 239 228 221 210 188 221 213 206 199 211 203 190 171 193 195 209 230 242 252 331
nan nan nan nan 54 48 nan nan 61 51 18 3 19 39 47 27 19 20 14 18 22 24 30 332 320 298 285 276 259 244 252 245 231 199 208 203 195 214 219 211 209 202 187 196 200 220 236 233 274
155 101 62 52 46 37 34 nan 54 46 23 12 13 47 42 30 30 nan nan 21 24 38 44 347 249 290 296 2 10 340 293 275 215 211 187 195 220 230 238 219 204 209 205 195 199 204 218 238 204
151 125 102 70 50 nan 8 nan 17 32 43 5 360 30 37 32 27 26 29 28 25 37 46 30 126 138 141 107 334 342 335 295 255 201 152 199 216 232 237 212 202 200 207 196 192 204 208 215 249
170 86 72 70 45 nan nan nan 12 29 22 35 20 7 14 14 18 20 27 40 39 39 43 46 133 149 146 114 68 50 9 323 243 163 171 198 194 206 209 210 215 201 212 198 186 196 204 197 230
351 67 67 55 nan nan nan nan nan 17 21 39 360 334 356 3 11 14 25 31 40 40 44 52 56 157 137 107 106 105 99 230 196 199 178 187 193 200 210 198 194 201 205 203 200 195 201 197 213
18 nan nan nan nan nan nan nan 8 1 36 30 0 350 356 3 15 16 23 28 34 41 43 45 58 78 81 103 126 132 141 181 212 218 221 215 208 187 208 206 206 210 205 217 215 214 218 208 212
nan nan nan nan nan nan nan nan 14 7 38 2 5 359 355 5 12 19 20 29 39 44 45 44 50 67 77 77 79 125 129 170 209 294 329 248 228 214 203 220 220 229 224 226 225 228 222 211 209
nan nan nan nan nan nan nan 9 15 31 4 358 355 4 10 11 11 15 17 17 28 41 46 48 46 49 53 57 57 59 116 106 44 10 311 271 288 274 231 198 220 232 235 230 233 236 230 227 217
nan nan nan nan nan nan nan nan 334 24 357 4 3 8 8 14 14 6 12 13 18 29 43 43 49 47 46 48 47 58 69 91 234 46 36 340 306 273 286 237 215 210 235 247 243 238 234 230 233
nan nan nan nan nan nan nan nan 24 7 13 8 11 11 16 14 15 13 4 13 12 21 24 35 42 46 44 45 48 51 53 45 41 27 8 4 357 351 250 259 252 232 211 240 244 239 236 238 239
nan nan nan nan nan nan nan nan 28 11 7 15 15 16 17 16 16 18 9 2 15 9 16 22 28 33 39 41 46 48 50 47 38 22 8 359 356 359 5 263 225 208 217 222 232 241 242 237 245
nan nan nan nan nan nan nan nan 355 20 16 12 17 22 25 23 21 25 16 2 357 4 359 12 22 24 30 34 37 46 49 38 40 30 22 19 4 3 11 7 338 249 240 224 219 220 234 241 245
nan nan nan nan nan nan nan nan 353 19 18 18 24 30 28 31 33 22 15 16 349 344 338 344 357 9 17 23 17 25 39 36 29 31 22 16 16 6 2 2 352 335 309 281 239 230 230 230 236
nan nan nan nan nan nan nan nan nan 15 27 28 27 14 12 25 23 10 15 2 353 349 324 334 334 347 329 316 328 344 15 8 354 5 11 359 356 356 356 2 352 336 318 324 286 239 234 228 238
nan nan nan nan nan nan nan nan nan nan 32 32 16 15 13 11 18 13 6 359 4 359 3 349 337 323 324 321 326 310 299 295 315 309 313 323 325 327 321 340 336 338 334 326 313 280 271 262 253
nan nan nan nan nan nan nan nan 289 287 244 351 20 9 3 11 13 15 9 11 358 353 359 7 351 308 309 290 280 284 278 263 263 258 294 293 303 311 312 316 336 315 320 329 331 305 277 253 260
nan nan nan nan nan nan nan nan nan 282 249 286 334 353 352 9 17 9 3 357 1 1 342 339 330 310 302 301 294 314 300 299 271 281 271 263 289 291 306 303 301 312 298 300 311 304 291 259 245
nan nan nan nan nan nan nan nan nan 269 284 316 310 323 332 353 356 355 357 356 352 342 335 313 307 310 302 304 308 309 297 299 283 281 285 274 273 283 295 291 289 289 284 295 303 296 291 280 250
nan nan nan nan nan nan nan nan nan 294 324 289 302 303 320 334 338 341 341 339 339 327 325 323 324 333 317 309 306 308 318 306 299 308 306 296 286 280 281 282 277 281 272 278 282 292 302 289 268
nan nan nan nan nan nan nan nan nan 328 302 302 309 306 318 321 322 325 326 333 329 324 320 324 323 320 322 320 317 318 317 313 314 307 301 297 296 291 288 288 280 274 272 270 270 277 286 284 275
nan nan nan nan nan nan nan nan nan nan 282 294 305 302 306 310 313 318 324 327 330 329 326 323 322 315 312 312 315 312 314 307 305 304 303 301 300 298 297 293 288 286 275 265 259 266 258 260 264
nan nan nan nan nan nan nan nan nan nan nan 292 298 299 302 300 308 316 315 322 326 316 309 308 300 290 281 300 301 301 299 300 298 297 296 298 295 293 293 294 293 291 280 272 263 255 268 254 240
nan nan nan nan nan nan nan nan nan nan 271 281 292 294 293 299 302 301 303 314 308 299 300 297 301 305 305 299 290 285 294 297 298 296 299 296 294 293 292 289 289 288 283 272 268 257 260 271 237
nan nan nan nan nan nan nan nan nan nan 295 303 295 294 298 296 299 306 309 309 304 305 301 296 295 298 300 298 293 292 289 286 285 288 289 288 287 287 288 289 285 284 282 275 266 260 260 257 256
nan nan nan nan nan nan nan nan nan nan nan nan 287 288 288 293 299 304 306 307 309 309 304 297 297 298 300 297 295 295 292 288 286 284 283 285 285 285 287 286 285 281 279 275 272 261 254 255 247